Weather History for Gwinn, MI

Change the Weather History Date:

Thursday, November 22, 2012

  Actual Average (KESC) Record (KESC)
Temperature  
Mean Temperature 49 °F -  
Max Temperature 59 °F 37 °F 55 °F (1990)
Min Temperature 39 °F 26 °F 0 °F (2008)
Degree Days  
Heating Degree Days 16    
Moisture  
Dew Point 38 °F    
Average Humidity 79    
Maximum Humidity 91    
Minimum Humidity 48    
Precipitation  
Precipitation 0.00 in - - ()
Sea Level Pressure  
Sea Level Pressure 29.67 in    
Wind  
Wind Speed 12 mph (SSW)    
Max Wind Speed 23 mph    
Max Gust Speed 30 mph    
Visibility 6 miles    
Events      
Averages and records for this station are not official NWS values.
T = Trace of Precipitation, MM = Missing Value Source: NWS Daily Summary

Daily Weather History Graph

Daily Weather History Graph

Search for Another Location

Airport:

Trip Planner

Search our weather history database for the weather conditions in past years. The results will help you decide how hot, cold, wet, or windy it might be!

Date:

Astronomy

Nov. 22, 2012 Rise Set
Actual Time 8:01 AM EST 5:09 PM EST
Civil Twilight 7:28 AM EST 5:43 PM EST
Nautical Twilight 6:50 AM EST 6:20 PM EST
Astronomical Twilight 6:15 AM EST 6:56 PM EST
Moon 2:11 PM EST (11/22) 2:03 AM EST (11/22)
Length of Visible Light 10h 15m
Length of Day
9h 08m
Waxing Gibbous, 71% of the Moon is Illuminated
Nov 22
Waxing Gibbous
Nov 28
Full
Dec 6
Last Quarter
Dec 13
New
Dec 20
First Quarter

Hourly Weather History & Observations

Time (EST) Temp. Windchill Dew Point Humidity Pressure Visibility Wind Dir Wind Speed Gust Speed Precip Events Conditions
12:16 AM 39.7 °F 33.7 °F 37.4 °F 91% 29.85 in 2.0 mi SSW 9.2 mph - N/A   Clear
12:35 AM 39.7 °F 32.7 °F 37.4 °F 91% 29.85 in 2.0 mi South 11.5 mph - N/A   Clear
12:56 AM 39.7 °F 32.7 °F 37.4 °F 91% 29.84 in 2.5 mi South 11.5 mph - N/A   Clear
1:15 AM 39.7 °F 32.7 °F 37.4 °F 91% 29.84 in 2.5 mi South 11.5 mph - N/A   Clear
1:36 AM 39.7 °F 31.9 °F 37.4 °F 91% 29.83 in 2.5 mi South 13.8 mph 18.4 mph N/A   Clear
1:56 AM 39.6 °F 31.7 °F 37.0 °F 91% 29.82 in 2.5 mi South 13.8 mph 18.4 mph N/A   Clear
2:15 AM 39.6 °F 32.1 °F 37.0 °F 91% 29.82 in 2.5 mi South 12.7 mph - N/A   Clear
2:36 AM 39.9 °F 32.1 °F 37.4 °F 91% 29.81 in 3.0 mi South 13.8 mph - N/A   Clear
2:56 AM 40.1 °F 32.7 °F 37.4 °F 90% 29.81 in 3.0 mi South 12.7 mph - N/A   Clear
3:15 AM 40.1 °F 33.2 °F 37.4 °F 90% 29.80 in 3.0 mi South 11.5 mph - N/A   Clear
3:36 AM 40.1 °F 32.7 °F 37.4 °F 90% 29.79 in 3.0 mi South 12.7 mph - N/A   Clear
3:56 AM 40.1 °F 33.2 °F 37.4 °F 90% 29.78 in 2.5 mi South 11.5 mph - N/A   Clear
4:15 AM 39.7 °F 33.2 °F 37.4 °F 91% 29.77 in 2.5 mi South 10.4 mph - N/A   Clear
4:36 AM 39.7 °F 32.7 °F 37.4 °F 91% 29.76 in 3.0 mi SSW 11.5 mph - N/A   Clear
4:56 AM 40.1 °F 32.7 °F 37.6 °F 91% 29.76 in 3.0 mi SSW 12.7 mph 18.4 mph N/A   Clear
5:16 AM 40.3 °F 32.2 °F 37.6 °F 90% 29.75 in 3.0 mi South 15.0 mph - N/A   Clear
5:36 AM 40.3 °F 32.2 °F 37.6 °F 90% 29.74 in 3.0 mi South 15.0 mph - N/A   Clear
5:55 AM 40.3 °F 32.6 °F 37.6 °F 90% 29.74 in 3.0 mi South 13.8 mph - N/A   Clear
6:50 AM 41.0 °F 33.1 °F 37.4 °F 87% 29.72 in 3.0 mi SSW 15.0 mph 23.0 mph N/A   Clear
7:50 AM 41.0 °F 32.5 °F 37.4 °F 87% 29.70 in 4.0 mi SSW 17.3 mph 24.2 mph N/A   Clear
8:50 AM 42.8 °F 34.8 °F 39.2 °F 87% 29.68 in 5.0 mi SSW 17.3 mph - N/A   Clear
9:50 AM 46.4 °F 39.0 °F 39.2 °F 76% 29.67 in 7.0 mi SSW 19.6 mph 25.3 mph N/A   Clear
10:50 AM 48.2 °F - 39.2 °F 71% 29.66 in 10.0 mi SSW 23.0 mph 29.9 mph N/A   Clear
11:55 AM 53.6 °F - 39.2 °F 58% 29.63 in 10.0 mi SSW 21.9 mph 29.9 mph N/A   Clear
12:50 PM 55.4 °F - 39.2 °F 54% 29.61 in 10.0 mi SSW 21.9 mph 27.6 mph N/A   Clear
1:55 PM 59.0 °F - 39.2 °F 48% 29.57 in 10.0 mi SSW 19.6 mph 26.5 mph N/A   Clear
2:50 PM 59.0 °F - 39.2 °F 48% 29.56 in 10.0 mi SSW 17.3 mph 23.0 mph N/A   Clear
3:50 PM 59.0 °F - 39.2 °F 48% 29.55 in 10.0 mi SSW 16.1 mph - N/A   Mostly Cloudy
4:50 PM 55.4 °F - 39.2 °F 54% 29.55 in 10.0 mi SSW 6.9 mph - N/A   Mostly Cloudy
5:50 PM 53.6 °F - 39.2 °F 58% 29.55 in 10.0 mi South 8.1 mph - N/A   Clear
6:50 PM 51.8 °F - 39.2 °F 62% 29.55 in 10.0 mi South 8.1 mph - N/A   Clear
7:50 PM 48.2 °F - 41.0 °F 76% 29.55 in 10.0 mi SSE 6.9 mph - N/A   Scattered Clouds
8:50 PM 46.4 °F 44.3 °F 41.0 °F 81% 29.52 in 10.0 mi SSE 4.6 mph - N/A   Overcast
9:50 PM 46.4 °F 42.4 °F 41.0 °F 81% 29.51 in 10.0 mi NW 8.1 mph - N/A   Overcast
10:16 PM 48.0 °F - 40.1 °F 74% 29.50 in 10.0 mi NE 3.5 mph - N/A   Overcast
10:35 PM 47.8 °F - 40.1 °F 75% 29.50 in 10.0 mi West 4.6 mph - N/A   Overcast
10:56 PM 46.0 °F 43.1 °F 39.6 °F 78% 29.50 in 10.0 mi WNW 5.8 mph - N/A   Mostly Cloudy
11:16 PM 46.8 °F - 39.7 °F 77% 29.49 in 10.0 mi NW 4.6 mph - N/A   Overcast
11:35 PM 46.2 °F - 39.0 °F 76% 29.48 in 10.0 mi Calm Calm - N/A   Overcast
11:56 PM 46.4 °F 41.9 °F 37.9 °F 72% 29.48 in 10.0 mi WNW 9.2 mph - N/A   Overcast